Regional Weather Roundup
Issued by NWS

Home | Current Version | Previous Version | Graphics & Text | Print | Product List | Glossary On
Versions: 1 2 3 4 5 6 7 8 9 10 11 12 13 14 15 16 17 18 19 20 21 22 23 24 25 26 27 28 29 30 31 32 33 34 35 36 37 38 39 40 41 42 43 44 45 46 47 48 49 50
000
ASUS43 KIND 200209
RWRIN

WEATHER ROUNDUP FOR INDIANA
NATIONAL WEATHER SERVICE INDIANAPOLIS IN
900 PM EST THU JAN 19 2017

NOTE: "FAIR" INDICATES FEW OR NO CLOUDS BELOW 12,000 FEET WITH NO
SIGNIFICANT WEATHER AND/OR OBSTRUCTIONS TO VISIBILITY.

* - STATION DOES NOT REPORT WEATHER SUCH AS PRECIPITATION OR FOG.

+ - STATION NOT QUALITY CONTROLLED BY THE NATIONAL WEATHER SERVICE.
    USE DATA WITH CAUTION...ESPECIALLY DEWPOINT AND RELATIVE
    HUMIDITY OBSERVATIONS.

INZ001>003-010>013-019-020-200300-
NORTHWEST INDIANA

CITY           SKY/WX    TMP DP  RH WIND       PRES   REMARKS
GARY /AIRPORT/ LGT RAIN  39  37  93 SE7       29.82F
KNOX *+        CLOUDY    37  28  70 E10       29.82F
LA PORTE +     RAIN      37  36  96 E10       29.82F
MICHIGAN CITY+ LGT RAIN  37  37 100 E5        29.82F
MONTICELLO +   LGT RAIN  40  38  95 E10       29.79F
RENSSELAER +   DRIZZLE   39  39 100 E10       29.80R
VALPARAISO     LGT RAIN  39  38  96 E12       29.81F FOG

$$

LMZ046-743>745-200300-
SOUTHERN LAKE MICHIGAN

STATION/POSITION TIME  TEMP    WIND        PRES    WAVE
                       AIR SEA DIR/SP/G            HT
                 (UTC) (F)     (DEG/KT/KT) (MB)    (FT)
BURNS HARBOR     0140   39     100/  6/ 12 1010.5F
MICHIGAN CITY    0140   39      90/  8/ 10   N/A

$$

INZ004-005-014>016-021>024-200300-
NORTH CENTRAL INDIANA

CITY           SKY/WX    TMP DP  RH WIND       PRES   REMARKS
ELKHART        MOCLDY    37  34  87 E5        29.86F FOG
GOSHEN         CLOUDY    38  34  85 SE6       29.86F
LOGANSPORT +   RAIN      37  37 100 E12       29.82F
PERU/GRISSOM   LGT RAIN  39  39 100 E10       29.80F FOG
ROCHESTER +    RAIN      41  39  93 E9        29.83F
SOUTH BEND     CLOUDY    37  35  92 E8        29.86F
WARSAW +       LGT RAIN  37  32  81 E6        29.85F

$$

INZ006>009-017-018-025>027-200300-
NORTHEAST INDIANA

CITY           SKY/WX    TMP DP  RH WIND       PRES   REMARKS
ANGOLA *+      CLOUDY    36  36 100 SE6       29.87F
AUBURN +       PTCLDY    37  34  87 E3        29.88F
FORT WAYNE     CLOUDY    40  36  86 E8        29.87F
HUNTINGTON +   CLOUDY    38  37  96 E5        29.85F
KENDALLVILLE + CLOUDY    36  35  96 SE7       29.88F FOG

$$

INZ028-029-035-036-043>045-051>053-200300-
WEST CENTRAL INDIANA

CITY           SKY/WX    TMP DP  RH WIND       PRES   REMARKS
CRAWFORDSVL +  LGT SNOW  41  41 100 E10       29.76F
GREENCASTLE +  LGT RAIN  43  43 100 E9        29.75F
LAFAYETTE      LGT RAIN  41  41 100 E15       29.76F FOG
TERRE HAUTE    LGT RAIN  45  43  93 E12       29.73F

$$

INZ030>032-037>040-046>048-054>057-064-065-200300-
CENTRAL INDIANA

CITY           SKY/WX    TMP DP  RH WIND       PRES   REMARKS
CP ATTERBURY + LGT RAIN  45  43  93 E6        29.78F
COLUMBUS       LGT RAIN  45  45 100 E5        29.79F FOG
FISHERS *+     CLOUDY    41  41 100 E5        29.79F
FRANKFORT +    RAIN      44  42  93 E13       29.79F
GREENWOOD *+   CLOUDY    44  44 100 E7        29.79F
INDIANAPOLIS   LGT RAIN  44  42  93 E10       29.77F FOG
-EAGLE CREEK   LGT RAIN  44  41  89 E9        29.77F FOG
KOKOMO +       LGT RAIN  40  39  97 E13       29.81F FOG
MARION +       LGT RAIN  39  39 100 E7        29.83F
MT COMFORT *+  CLOUDY    43  41  93 E9        29.80F
SHELBYVILLE    LGT RAIN  45  41  86 E10       29.78F FOG
ZIONSVILLE +   LGT RAIN  41  40  96 E10       29.79F

$$

INZ033-034-041-042-049-050-058-059-200300-
EAST CENTRAL INDIANA

CITY           SKY/WX    TMP DP  RH WIND       PRES   REMARKS
MUNCIE         LGT RAIN  44  40  85 E6        29.83F

$$

INZ060-061-067>069-081>083-085>088-200300-
SOUTHWEST INDIANA

CITY           SKY/WX    TMP DP  RH WIND       PRES   REMARKS
EVANSVILLE     LGT RAIN  53  52  96 CALM      29.71F FOG
HUNTINGBURG *+ LGT RAIN  50  50 100 SE6       29.73F
WASHINGTON +   RAIN     N/A N/A N/A SE5       29.73F

$$

INZ062-063-066-070>080-084-089>092-200300-
SOUTH CENTRAL AND SOUTHEAST INDIANA

CITY           SKY/WX    TMP DP  RH WIND       PRES   REMARKS
BLOOMINGTON    RAIN      46  43  89 SE7       29.75F FOG
MADISON *+     CLOUDY    46  45  93 E9        29.80F
NORTH VERNON + LGT RAIN N/A N/A N/A E8        29.80F
SEYMOUR +      LGT RAIN  48  46  93 E7        29.78F

$$





USA.gov is the U.S. government's official web portal to all federal, state and local government web resources and services.